Location: Unspecified
(0.0000°N, 0.0000°E)
Time: 12:32:40
(UTC+00:00)

STARLINK 1031 - Pass Details

Date: 11 December 2019
Orbit: 348 x 351 km, 53.0° (Epoch: 11 December)

Event Time Altitude Azimuth Distance (km) Brightness Sun altitude
Rises 19:51:26 0° 212° (SSW) 2,146 7.5 -27.0°
Reaches altitude 10° 19:53:27 10° 210° (SSW) 1,303 6.2 -27.4°
Enters shadow 19:53:34 11° 210° (SSW) 1,256 6.1 -27.5°
